Regional Weather Roundup
Issued by NWS

Home | Current Version | Previous Version | Graphics & Text | Print | Product List | Glossary On
Versions: 1 2 3 4 5 6 7 8 9 10 11 12 13 14 15 16 17 18 19 20 21 22 23 24 25 26 27 28 29 30 31 32 33 34 35 36 37 38 39 40 41 42 43 44 45 46 47 48 49 50
000
ASUS43 KLSX 030359
RWRMO

WEATHER SUMMARY FOR MISSOURI
NATIONAL WEATHER SERVICE SPRINGFIELD MO
1000 PM CST MON MAR 02 2015

NOTE: "FAIR" INDICATES FEW OR NO CLOUDS BELOW 12,000 FEET WITH NO
       SIGNIFICANT WEATHER AND/OR OBSTRUCTIONS TO VISIBILITY.
       CURRENT SKY AND/OR WEATHER CONDITIONS ARE NOT AVAILABLE FOR
       CHILLICOTHE AND FARMINGTON.

MOZ001>031-035>038-043-044-053-054-030500-
...NORTHERN AND WESTERN MISSOURI...

CITY           SKY/WX    TMP DP  RH WIND       PRES   REMARKS
KANSAS CTY INT CLOUDY    34  21  59 S13       30.05F WCI  25
KANSAS C DTWN  CLOUDY    36  21  54 SE9       30.06F WCI  29
LEE`S SUMMIT   CLOUDY    33  22  63 SE7       30.09F WCI  27
ST JOSEPH      CLOUDY    33  21  61 SE13      30.05F WCI  24
CHILLICOTHE      N/A     33  21  61 SE10      30.12F WCI  25
KIRKSVILLE     CLOUDY    31  22  69 SE14      30.14F WCI  21

$$
MOZ066>068-077>081-088>096-101>105-030500-
...SOUTHWEST MISSOURI...

CITY           SKY/WX    TMP DP  RH WIND       PRES   REMARKS
SPRINGFIELD    CLOUDY    34  22  61 S22G28    30.09F WCI  22
JOPLIN         CLOUDY    35  29  78 S9        30.11F WCI  28

$$
MOZ032>034-039>042-045>050-055>058-069>072-030500-
...CENTRAL MISSOURI...

CITY           SKY/WX    TMP DP  RH WIND       PRES   REMARKS
COLUMBIA       MIX PCPN  32  21  64 SE14      30.15F WCI  22
JEFFERSON CITY CLOUDY    33  22  63 SE12      30.17F WCI  24
ROLLA          CLOUDY    33  21  61 SE10      30.15F WCI  25
SEDALIA        CLOUDY    34  23  64 E7        30.12F WCI  28
OSAGE BEACH    CLOUDY    37  19  48 SE8       30.13F

$$
MOZ051-052-059>065-030500-
...EAST CENTRAL MISSOURI...

CITY           SKY/WX    TMP DP  RH WIND       PRES   REMARKS
ST LOUIS INTL  CLOUDY    32  20  61 SE10      30.26F WCI  24
SPIRIT OF STL  CLOUDY    32  18  56 SE6       30.25F WCI  26
ST CHARLES     CLOUDY    30  21  69 SE9       30.25F WCI  22

$$
MOZ072>076-082>087-097>100-106>115-030500-
...SOUTH CENTRAL AND SOUTHEAST MISSOURI...

CITY           SKY/WX    TMP DP  RH WIND       PRES   REMARKS
CAPE GIRARDEAU CLOUDY    36  25  64 E6        30.27F
FARMINGTON     CLOUDY    32  23  69 SE5       30.27S WCI  27
POPLAR BLUFF   CLOUDY    34  26  72 N3        30.27S
WEST PLAINS    CLOUDY    32  20  61 SE7       30.21F WCI  26

$$


USA.gov is the U.S. government's official web portal to all federal, state and local government web resources and services.